Вернуться в каталог

STARLINK-35049

АктивенСвязьSSO
NORAD 65444·PAYLOAD·🇺🇸 United States

Запущен Sep 3, 2025 с Vandenberg Space Force Base

Loading…

Ближайшие Пролёты (ближайшие 24 часа)

TLE

СвежийSource: CelesTrak SupGP

Эпоха: Sep 15, 2026, 03:19 UTC

1 65444C 25194L   26258.13868056 -.00033132  00000+0 -10285-2 0  2583
2 65444  97.2846 107.8552 0001764  92.5500 356.2137 15.33455079    18

Отслеживайте STARLINK-35049 в реальном времени с AllMySat

Download on the App Store